Regional Weather Roundup
Issued by NWS Charleston, SC

Home | Current Version | Previous Version | Text Only | Print | Product List | Glossary On
Versions: 1 2 3 4 5 6 7 8 9 10 11 12 13 14 15 16 17 18 19 20 21 22 23 24 25 26 27 28 29 30 31 32 33 34 35 36 37 38 39 40 41 42 43 44 45 46 47 48 49 50
000
ASUS42 KCHS 210812
RWRCHS

Regional Weather Roundup
National Weather Service Charleston SC
300 AM EST WED FEB 21 2018

NOTE: "fair" indicates few or no clouds below 12,000 feet with no
significant weather and/or obstructions to visibility.

Not all stations are quality controlled. Use data with caution,
especially dewpoint observations.

SCZ027-030-031-034>040-042>050-210900-
...Southeast South Carolina...

CITY           SKY/WX    TMP DP  RH WIND       PRES   REMARKS
N Charleston   FAIR      66  65  96 SE9       30.41F
Waterfront Prk   N/A     63  63 100 CALM      30.28S
Mount Pleasant FAIR      63  63 100 CALM      30.42F FOG
Johns Island   FAIR      66  66 100 CALM      30.42S
Pinopolis        N/A     64  64 100 CALM      30.33F
Moncks Corner  FOG       63  61  94 CALM      30.41F VSB 3/4
Summerville    FAIR      63  63 100 CALM      30.42F
Beaufort MCAS  FAIR      69  67  93 S5        30.40F
Beaufort Arpt  FAIR      68  64  88 S3        30.40F
Hilton Head Is FAIR      66  64  94 VRB6G14   30.41F
Walterboro     FOG       61  61 100 CALM      30.42S VSB 1/4
Allendale      CLOUDY    63  63 100 CALM      30.41S

...Southern Midlands and Pee Dee...

CITY           SKY/WX    TMP DP  RH WIND       PRES   REMARKS
Georgetown     RAIN      59  57  94 CALM      30.44F VSB<1/4
Kingstree      FOG       59  57  94 CALM      30.42F VSB 1/4
Orangeburg     FOG       62  61  96 CALM      30.42F VSB 3/4
Barnwell       FOG       64  64 100 CALM      30.42S VSB 1
Aiken          CLOUDY    68  66  94 S7        30.45S
Manning        FAIR      61  59  94 MISG      30.42F FOG
Columbia       CLOUDY    68  67  96 S7        30.41F
Sumter         FOG       61  61 100 CALM      30.40F VSB 1/2
Florence       FOG       62  62 100 CALM      30.43S VSB 1/2
Myrtle Beach   FOG       60  60 100 SE5       30.45F VSB 1/2
N Myrtle Beach FAIR      65  64  97 S6        30.44F

$$

GAZ063-065-086>088-099>101-113>116-118-119-134>141-150-210900-
...Southeast Georgia...

CITY           SKY/WX    TMP DP  RH WIND       PRES   REMARKS
Savannah Arpt  FAIR      68  67  96 S8        30.40S
Hunter AAF     FAIR      68  66  95 SE5       30.37F
Fort Stewart   FAIR      66  65  96 SE3       30.37F
Statesboro     CLOUDY    69  32  25 CALM      30.40F
Sylvania       CLOUDY    67  67 100 CALM      30.41F FOG
Claxton        CLOUDY    67  66  97 CALM      30.40S

...CSRA, Central and far Southeast Georgia...

CITY           SKY/WX    TMP DP  RH WIND       PRES   REMARKS
Thomson        MOCLDY    68  65  90 SW7       30.44F
Augusta-Bush   CLOUDY    70  67  90 S8        30.40S
Augusta-Daniel CLOUDY    70  66  87 S8        30.41S
Swainsboro     CLOUDY    70  68  94 S7        30.41S
Vidalia        CLOUDY    72  68  88 S3        30.39F
Eastman        CLOUDY    72  61  68 SE6       30.41S
Hazlehurst     CLOUDY    72  69  92 S7        30.37F
Alma           CLOUDY    71  67  87 SE7       30.38S
Waycross       CLOUDY    70  67  90 SE5       30.37F
Jesup          FOG       68  64  88 CALM      30.38F VSB 1/2
Baxley         CLOUDY    68  68 100 S5        30.38S
Brunswick      CLOUDY    70  64  83 SE7       30.39F
Saint Simons   CLOUDY    68  67  96 SE9       30.38F

$$

SCZ027-028-034-036>038-045-046-048>050-GAZ119-141-210900-
...Lake and Supplemental Coastal Observations...

STATION/POSITION TIME  TEMP    WIND        PRES    WAVE   SWELL
                       AIR SEA DIR/SP/G            HT/PER HT/PER/DIR
                 (UTC) (F)     (DEG/KT/KT) (MB)    (FT/S) (FT/S/D)
Winyah Bay       0645   62        CALM     1031.0
Lake Murray      0720   65     170/ 10/ 12 1029.1
ACE Basin NERRS  0645   66     130/  3     1030.0
Fort Pulaski     0736   66 60  150/  4/  6 1029.8F
Sapelo Island    0700   69     140/  8     1029.0

$$

ANZ835-935-AMZ111-154-330-350-352-354-370-450-454-472-210900-
...C-MAN and Buoy Observations...

STATION/POSITION TIME  TEMP    WIND        PRES    WAVE   SWELL
                       AIR SEA DIR/SP/G            HT/PER HT/PER/DIR
                 (UTC) (F)     (DEG/KT/KT) (MB)    (FT/S) (FT/S/D)
Buoy 41004       0750   71 68  140/  8/ 10 1030.0F   4/ 6   5/140/ 6
Buoy 41008       0750   62 57  110/  6/  6 1028.9F   3/ 6   3/120/ 6
Folly Beach CMAN 0800   63     130/  5/  6 1030.3F
Capers Nearshore 0708   58 59  150/  6/ 10 1030.0F
Fripp Nearshore  0708   60 59  150/  8/ 10 1029.7R


STATION/POSITION TIME  TEMP    WIND        PRES    WAVE   SWELL
                       AIR SEA DIR/SP/G            HT/PER HT/PER/DIR
                 (UTC) (F)     (DEG/KT/KT) (MB)    (FT/S) (FT/S/D)
5E St. Marys GA  0800      62                N/A     3/ 6
Frying Pan Buoy  0750   71 69  170/  4/  6 1031.0F   4/ 6   3/150/ 6
Buoy 41025       0750   72 71  180/ 14/ 16 1032.3F   4/11   3/ 60/11
Cape Lookout NC  0700          190/  6/  7 1032.0F
Buoy 41002       0750   72 74  130/ 12/ 16 1032.2S   5/11   5/ 30/11
Buoy 41010       NOT AVBL
St Augustine FL  0800   67 65  150/  5/  6 1028.5F


$$




USA.gov is the U.S. government's official web portal to all federal, state and local government web resources and services.